ChubuSat-2
1 41338U 16012B 24102.68732373 .00005301 00000-0 33660-3 0 9997
2 41338 31.0010 98.5201 0011935 287.4430 72.4902 15.07270429447554
ChubuSat-3
1 41339U 16012C 24102.67329269 .00004574 00000-0 29338-3 0 9991
2 41339 31.0077 96.7121 0011905 292.7178 67.2201 15.06805059447538
Horyu-4
1 41340U 16012D 24102.54980189 .00011683 00000-0 61653-3 0 9998
2 41340 31.0036 49.2531 0010130 9.8286 350.2551 15.14256822448035
e-st@r-II
1 41459U 16025D 24102.42599307 .00291876 00000-0 15656-2 0 9993
2 41459 98.1304 346.0771 0038612 113.2359 247.2979 15.78413245439121
Lapan A3
1 41603U 16040E 24102.83609646 .00003142 00000-0 13006-3 0 9999
2 41603 97.1468 119.5749 0011439 345.8089 14.2826 15.24583647433112
Pratham
1 41783U 16059A 24102.59683494 .00000832 00000-0 16407-3 0 9995
2 41783 97.8426 125.0536 0031513 230.1120 129.7312 14.64662570402793
CAS-2T
1 41847U 16066G 24102.72431595 .00001315 00000-0 20096-3 0 9998
2 41847 98.4645 174.5130 0355419 17.6705 343.6484 14.40983368389925
CAS-4B
1 42759U 17034B 24102.84671320 .00014168 00000-0 55817-3 0 9991
2 42759 43.0139 240.7443 0013754 271.9184 88.0092 15.25365424377264
CAS-4A
1 42761U 17034D 24102.85340385 .00013806 00000-0 54213-3 0 9996
2 42761 43.0165 239.1027 0012701 276.7869 83.1536 15.25505883377275
NIUSat
1 42766U 17036B 24102.82153956 .00356571 49315-4 11606-2 0 9999
2 42766 97.1012 138.2759 0003827 144.2376 215.9155 15.90681738379161
Aalto 1
1 42775U 17036L 24102.84699745 .00048069 00000-0 68855-3 0 9995
2 42775 97.1141 132.1988 0008123 98.1635 262.0542 15.56003651378751
URSA MAIOR
1 42776U 17036M 24102.88510136 .00089699 00000-0 89298-3 0 9994
2 42776 97.1111 135.4045 0006489 98.2875 261.9121 15.65392367378957
Max Valier Sat
1 42778U 17036P 24102.57152869 .00088433 00000-0 86648-3 0 9998
2 42778 97.1109 139.1946 0006784 104.3198 255.8816 15.65794909379088
D-SAT
1 42794U 17036AF 24102.50514277 .00009203 00000-0 66413-3 0 9990
2 42794 97.4945 86.8222 0109513 14.4835 345.9485 14.99550103370722
TechnoSat
1 42829U 17042E 24102.50903624 .00003216 00000-0 29209-3 0 9994
2 42829 97.3831 287.3488 0011527 300.6813 59.3273 14.95873792367207
AO-91
1 43017U 17073E 24102.62024631 .00008220 00000-0 52307-3 0 9998
2 43017 97.5881 340.5077 0216479 155.6057 205.5596 14.91642045345739
TianYi 2
1 43155U 18008A 24102.86722525 .00050389 00000-0 98420-3 0 9992
2 43155 97.2458 156.1509 0005745 312.1422 47.9339 15.47298638344603
Zhou Enlai
1 43156U 18008B 24102.88416840 .00073516 00000-0 11908-2 0 9997
2 43156 97.2501 157.3495 0003858 300.0163 60.0707 15.52538648344598
TianYi 6
1 43158U 18008D 24102.88160450 .00034451 00000-0 87590-3 0 9998
2 43158 97.2612 151.6447 0005501 332.7503 27.3454 15.39524591344248
S-Net D
1 43186U 18014G 24102.46082851 .00004176 00000-0 30987-3 0 9997
2 43186 97.5974 5.5009 0009036 224.4310 135.6192 15.03572226338473
S-Net B
1 43187U 18014H 24102.46279999 .00004551 00000-0 33729-3 0 9993
2 43187 97.5982 5.4472 0010088 220.4317 139.6160 15.03567249338476
S-Net A
1 43188U 18014J 24102.72822547 .00004541 00000-0 33644-3 0 9991
2 43188 97.5986 5.8153 0009906 219.7842 140.2659 15.03576759338514
S-Net C
1 43189U 18014K 24102.46501345 .00004571 00000-0 33852-3 0 9997
2 43189 97.6002 5.4907 0012007 214.6723 145.3721 15.03569213337024
Changshagaoxin
1 43669U 18083H 24102.42921245 .00236240 00000-0 14058-2 0 9993
2 43669 97.3322 139.3861 0005168 147.2261 212.9326 15.77288711303255
Ten-Koh
1 43677U 18084G 24102.37653454 .00003761 00000-0 34624-3 0 9993
2 43677 98.0539 254.0138 0013308 235.1378 124.8592 14.95317966296739
PO-101
1 43678U 18084H 24102.88417336 .00001617 00000-0 15401-3 0 9997
2 43678 98.0630 258.9813 0008237 247.6673 112.3674 14.94864633297018
QO-100
1 43700U 18090A 24102.59528330 .00000136 00000-0 00000-0 0 9996
2 43700 0.0171 181.1428 0001123 220.0184 39.2180 1.00271958 19684
MinXSS-2
1 43758U 18099A 24102.62095422 .00007909 00000-0 52894-3 0 9999
2 43758 97.5599 166.0683 0018019 180.9483 179.1714 15.07091785292753
AO-95
1 43770U 18099N 24102.69108413 .00006231 00000-0 45060-3 0 9999
2 43770 97.5531 162.0012 0013316 222.2402 137.7799 15.04312513292565
RANGE-B
1 43772U 18099Q 24102.67925608 .00008829 00000-0 58162-3 0 9994
2 43772 97.5294 165.2676 0006854 134.6591 225.5197 15.07727179292691
RANGE-A
1 43773U 18099R 24102.41594446 .00003728 00000-0 29279-3 0 9999
2 43773 97.5137 157.8118 0015219 198.7889 161.2776 15.01410107292415
MOVE-II
1 43780U 18099Y 24102.41650879 .00012785 00000-0 73668-3 0 9994
2 43780 97.5270 166.1606 0007633 196.1499 163.9490 15.12509734292820
SNUSat 2
1 43782U 18099AA 24102.13888119 .00004339 00000-0 32085-3 0 9999
2 43782 97.5201 160.9698 0016036 165.0079 195.1626 15.03601394292491
SnugLite
1 43784U 18099AC 24102.40521098 .00005555 00000-0 39935-3 0 9993
2 43784 97.5020 160.6162 0005582 161.1421 199.0013 15.04632956292590
ITASat 1
1 43786U 18099AE 24102.71606702 .00006023 00000-0 44994-3 0 9997
2 43786 97.5158 161.8856 0017665 216.1233 143.8800 15.03043025292586
EAGLET 1
1 43790U 18099AJ 24102.43941658 .00004145 00000-0 32073-3 0 9991
2 43790 97.5373 162.0675 0014522 196.7979 163.2767 15.01923445292254
ESEO
1 43792U 18099AL 24102.60554730 .00001563 00000-0 13295-3 0 9999
2 43792 97.5234 159.5025 0011933 194.4202 165.6682 14.99165348292224
CSIM
1 43793U 18099AM 24102.13603405 .00014133 00000-0 81372-3 0 9990
2 43793 97.5339 167.5513 0014330 179.5024 180.6224 15.12452287292633
JO-97
1 43803U 18099AX 24102.41933006 .00006785 00000-0 47276-3 0 9995
2 43803 97.5270 162.6287 0011283 162.9018 197.2591 15.05696380292644
Suomi 100
1 43804U 18099AY 24102.70576795 .00007242 00000-0 51188-3 0 9992
2 43804 97.5347 162.7155 0017175 164.9470 195.2271 15.05068694292672
CHOMPTT
1 43855U 18104G 24102.59189761 .00203688 00000-0 98131-3 0 9996
2 43855 85.0088 317.9069 0003065 219.9366 140.1683 15.82078300297073
ISAT
1 43879U 18111D 24102.59272203 .00008828 00000-0 57026-3 0 9991
2 43879 97.6249 8.6952 0011908 219.3038 140.7327 15.08417876289375
UWE-4
1 43880U 18111E 24102.54137680 .00008441 00000-0 55572-3 0 9992
2 43880 97.6165 8.8208 0015401 232.0645 127.9192 15.07691186287381
Sparrow
1 43881U 18111F 24102.32032469 .00008595 00000-0 54880-3 0 9999
2 43881 97.6325 10.2031 0008197 269.2198 90.8091 15.08881519289391
AISTechSat 3
1 44103U 19018AB 24102.55483928 .00756777 28046-3 12439-2 0 9997
2 44103 97.1854 170.2260 0009408 239.1551 120.8804 16.03155489281100
AISat 1
1 44104U 19018AC 24102.55328414 .00092089 00000-0 61137-3 0 9992
2 44104 97.3618 209.0165 0021964 227.2882 132.6534 15.74858450282312
Prox-1
1 44339U 19036A 24102.19838837 .00008083 00000-0 14338-2 0 9998
2 44339 24.0004 295.8257 0009231 337.2392 22.7692 14.65042002255405
SONATE
1 44400U 19038Q 24102.54133618 .00017696 00000-0 59472-3 0 9992
2 44400 97.7127 93.8302 0016235 351.1715 8.9237 15.30769134263876
BeeSat 9
1 44412U 19038AC 24102.53554007 .00133916 00000-0 13411-2 0 9999
2 44412 97.6841 104.2169 0002404 318.2993 41.8082 15.65115677264302
